Station MISM1 - Matinicus Rock, ME Image indicating link to RSS feed of recent meteorological observations for station MISM1


Conditions at MISM1 as of
(2:00 am EDT)
0600 GMT on 05/30/2024:
     

Click on the graph icon in the table below to see a time series plot of the last five days of that observation.

5-day plot - Wind Direction Wind Direction (WDIR): NE ( 40 deg true )
5-day plot - Wind Speed Wind Speed (WSPD): 13 kts
5-day plot - Wind Gust Wind Gust (GST): 13 kts
5-day plot - Atmospheric Pressure Atmospheric Pressure (PRES):29.93 in
5-day plot - Pressure Tendency Pressure Tendency (PTDY):+0.03 in ( Rising )
5-day plot - Air Temperature Air Temperature (ATMP): 55.2 °F
5-day plot - Wind Speed at 10 Meters Wind Speed at 10 meters (WSPD10M): 14 kts
5-day plot - Wind Speed at 20 Meters Wind Speed at 20 meters (WSPD20M): 14 kts
5-day plot -  Wind Speed, Wind Gust and Atmospheric Pressure Combined plot of Wind Speed, Gust, and Air Pressure
Continuous Winds
TIME
(EDT)
5-day plot - Wind Direction WDIR 5-day plot - Wind Speed WSPD
2:00 amNNE ( 33 deg ) 13 kts
1:50 amNNE ( 30 deg ) 14 kts
1:40 amNNE ( 32 deg ) 14 kts
1:30 amNNE ( 30 deg ) 14 kts
1:20 amNNE ( 25 deg ) 13 kts
1:10 amNNE ( 19 deg ) 13 kts
 
Peak gust during the measurement hour
TIME
(EDT)
5-day plot - Gust Direction GDR 5-day plot - Gust Speed GST
1:25 amNNE ( 30 deg ) 15 kts
Previous observations
TIME
(EDT)
5-day plot - Wind Direction
WDIR
 
5-day plot - Wind Speed
WSPD
kts
5-day plot - Wind Gust
GST
kts
5-day plot - Wave Height
WVHT
ft
5-day plot - Dominant Wave Period
DPD
sec
5-day plot - Average Wave Period
APD
sec
5-day plot - Mean Wave Direction
MWD
 
5-day plot - Atmospheric Pressure
PRES
in
5-day plot - Pressure Tendency
PTDY
in
5-day plot - Air Temperature
ATMP
°F
5-day plot - Water Temperature
WTMP
°F
5-day plot - Dew Point
DEWP
°F
5-day plot - Salinity
SAL
psu
5-day plot - Visibility
VIS
nmi
5-day plot - Tide (above MLLW)
TIDE
ft
2024-05-30 01:00 amNNE 13 14----29.93+0.02 55.2-----
2024-05-30 12:00 am W 8 9----29.92+0.02 53.8-----
2024-05-29 11:00 pmWSW 13 14----29.90+0.02 56.7-----
2024-05-29 10:00 pm SW 15 15----29.91+0.04 58.3-----
2024-05-29 09:00 pm SW 17 17----29.90+0.04 58.3-----
2024-05-29 08:00 pmSSW 17 17----29.88+0.02 58.3-----
2024-05-29 07:00 pm SW 15 16----29.87+0.00 60.3-----
2024-05-29 06:00 pm SW 14 14----29.86+0.00 60.4-----
2024-05-29 05:00 pm SW 11 11----29.86+0.01 59.5-----
2024-05-29 04:00 pm SW 16 16----29.86+0.00 60.6-----
2024-05-29 03:00 pm SW 16 17----29.85+0.00 58.8-----
2024-05-29 02:00 pm SW 15 15----29.85+0.00 58.1-----
2024-05-29 01:00 pmWSW 15 16----29.86+0.03 55.4-----
2024-05-29 12:00 pmWSW 14 15----29.85+0.04 55.4-----
2024-05-29 11:00 amWSW 14 15----29.85+0.06 55.6-----
2024-05-29 10:00 amWSW 14 14----29.83+0.06 55.8-----
2024-05-29 09:00 am SW 7 7----29.82+0.06 54.7-----
2024-05-29 08:00 am W 12 12----29.79+0.06 56.5-----
2024-05-29 07:00 am W 13 13----29.78+0.07 55.4-----
2024-05-29 06:00 am W 15 15----29.76+0.06 56.7-----
2024-05-29 05:00 am W 16 17----29.74+0.06 57.4-----
2024-05-29 04:00 am W 14 14----29.70+0.03 58.1-----
2024-05-29 03:00 am W 14 14----29.69+0.03 62.1-----